Regional Weather Roundup
Issued by NWS Newport/Morehead, NC

Current Version | Previous Version | Text Only | Print | Product List | Glossary On
Versions: 1 2 3 4 5 6 7 8 9 10 11 12 13 14 15 16 17 18 19 20 21 22 23 24 25 26 27 28 29 30 31 32 33 34 35 36 37 38 39 40 41 42 43 44 45 46 47 48 49 50
561 ASUS42 KMHX 231824 RWRMHX WEATHER ROUNDUP FOR EASTERN NORTH CAROLINA NATIONAL WEATHER SERVICE NEWPORT/MOREHEAD CITY NC 200 PM EDT SUN JUL 23 2017 NOTE: "FAIR" INDICATES FEW OR NO CLOUDS BELOW 12,000 FEET WITH NO SIGNIFICANT WEATHER AND/OR OBSTRUCTIONS TO VISIBILITY NCZ015>017-031-032-045>047-102-103-231900- NORTH COAST CITY SKY/WX TMP DP RH WIND PRES REMARKS EDENTON MOSUNNY 94 80 64 SW9 29.83F HX 113 ELIZABETH CITY PTSUNNY 92 81 70 SW6 29.82F HX 112 KITTY HAWK CLEAR 92 77 63 SW8 29.82F HX 105 MANTEO SUNNY 91 78 63 W14 29.83F HX 105 $$ NCZ045>047-081-094-103-104-231900- CENTRAL COAST CITY SKY/WX TMP DP RH WIND PRES REMARKS FRISCO SUNNY 84 76 76 SW14G21 29.89S $$ NCZ095-097-098-100-101-231900- SOUTHERN COAST CITY SKY/WX TMP DP RH WIND PRES REMARKS BEAUFORT SUNNY 86 82 88 SW17G26 29.89F HX 104 CEDAR ISLAND NOT AVBL JACKSONVILLE MOSUNNY 94 77 57 SW9 29.86F HX 108 PINEY ISLAND PTCLDY N/A N/A N/A SW15 29.87F WILMINGTON MOSUNNY 93 77 59 SW8 29.88F HX 107 $$ NCZ011>013-027>030-043-044-078>080-089-090>093-098-231900- COASTAL PLAIN CITY SKY/WX TMP DP RH WIND PRES REMARKS AHOSKIE N/A 78 76 91 CALM 29.84F CLINTON MOSUNNY 94 78 58 SW9 29.86F HX 109 ELIZABETHTOWN NOT AVBL GOLDSBORO MOSUNNY 95 79 58 SW13 29.84F HX 112 GREENVILLE MOSUNNY 95 77 55 W7 29.86F HX 109 HAVELOCK MOSUNNY 92 79 65 SW13 29.87F HX 108 KENANSVILLE MOSUNNY 97 75 49 SW12G18 29.86F HX 109 KINSTON PTSUNNY 97 75 49 SW13 29.86F HX 109 NEW BERN MOSUNNY 94 78 60 SW12 29.86F HX 110 RICHLANDS MOSUNNY 95 78 58 SW10 29.87F HX 111 ROCKY MOUNT MOSUNNY 95 77 55 VRB5 29.83F HX 109 WASHINGTON MOSUNNY 93 78 61 SW13 29.83F HX 108 WHITEVILLE MOSUNNY 94 74 52 SW5 29.88F HX 104 $$ AMZ130-135-150-152-154-156-158-170-250-252-270-ANZ085-086-088-633-658-670-231900- MARINE OBSERVATIONS STATION/POSITION TIME TEMP WIND PRES WAVE SWELL AIR SEA DIR/SP/G HT/PER HT/PER (UTC) (F) (DEG/KT/KT) (MB) (FT/S) (FT/S) CHESAPEAKE LIGHT NOT AVBL 64 E VA BEACH 1750 81 80 240/ 10/ 12 1010.7 4/ 6 3/ 6 DUCK 1800 87 58 250/ 12/ 15 1009.8 2 E DUCK 1800 63 N/A 2/10 OREGON INLET 1800 86 84 200/ 19/ 22 1010.3 13E OREGON INLT 1748 75 N/A 4/ 5 2/10 HATTERAS CG 1800 82 76 220/ 11/ 16 1012.0 DIAMOND BUOY 1750 84 84 230/ 21/ 25 1012.0 7/ 7 2/10 CAPE LOOKOUT 1800 84 210/ 17/ 21 1012.3 BEAUFORT LAB 1800 84 80 210/ 12/ 18 1011.6 30 SE NEW RVR IN 1808 82 82 230/ 16/ 21 1013.1 30 SE NEW RVR IN 1813 82 N/A 6/ 6 2/11 27 SE WRIGHTSVLE 1808 83 83 210/ 16/ 21 1013.0 5 SE WRIGHTSVLE 1808 81 80 190/ 10/ 17 1012.7 225 S CAPE HAT 1750 82 84 230/ 16/ 17 1017.1 5/ 6 2/10 41 SE CHARLESTON 1800 82 84 210/ 17/ 21 1014.5 $$

USA.gov is the U.S. government's official web portal to all federal, state and local government web resources and services.